COSMOS 1275 DEB, 42231

Orbit data source: Space-Track

COSMOS 1275 DEB, 42231 is space debris in LEO originally from a launch on Thu, 04 Jun 1981 UTC launched from the Plesetsk Missile And Space Complex (PKMTR). Debris objects in space refer to the collection of defunct objects orbiting the Earth. Examples of debris include non-operational satellites, rocket bodies, and fragments generated from explosions, collisions, or faulty payload assembly.

Loading next visibility...
Identifier
42231, 1981-053UX
Orbit
LEO
Country
Flag of CISCIS
Related business
Manufacturer
Unknown
Mission
Spacecraft
Bus & Motor
Unknown
Mass
Unknown
Launch date (UTC)
1981-06-04 (45 years ago)
Launch vehicle
Unknown
Launch site
Plesetsk Missile And Space Complex (PKMTR)
Object type
Payload
Rocket body
Debris
Shape & HBR
Unknown shape, 0.1 m
Radar Cross Section
Small (<0.1 m²)

Expand to show TLE details & history
Last TLE update: 4 days ago

TLE from 4 days ago
0 COSMOS 1275 DEB
1 42231U 81053UX  26203.32244699  .00003971  00000-0  14308-2 0  9999
2 42231  82.7563 209.2546 0036320  77.9900 282.5355 14.33135031654547
Epoch: 2026-07-22T07:44Z
TLE epoch observation values (Epoch: 2026-07-22T07:44:19.419Z)
Latitude
-0.00006°
Longitude
153.09423°
Altitude
778.692 km
Speed
7.467 km/s
True Right ascension
13h 57m 01s
True Declination
0° 00' 00"
Sunlit
Object was in daylight at epoch
Visualization orbit readout
Latitude
Unknown
Longitude
Unknown
Altitude
Unknown
Speed
Unknown
Apparent Right ascension
Unknown
Apparent Declination
Unknown
Sunlit
N/A
Visualization observer readout
Local Sidereal Time
03:23:27
Azimuth
Unknown
Elevation
Unknown
Doppler factor
Unknown
Orbital elements
Apogee altitude
804.339 km
Perigee altitude
752.355 km
Semi-major axis
7,156.484 km
Eccentricity
0.00363
Inclination
82.7563°
RAAN
209.2546°
Arg. of periapsis
77.99°
True anomaly
282.12883°
Mean anomaly
282.5355°
Eccentric anomaly
282.3322°
Mean motion
3.58504 °/min
Orbital period
100.42 mins
BSTAR
0.0014308
Loading maneuver chart data...
Computing Atmospheric mass density...

Documentation

Showing up to 5 results
|